Regional Weather Roundup
Issued by NWS

Home | Current Version | Previous Version | Graphics & Text | Print | Product List | Glossary On
Versions: 1 2 3 4 5 6 7 8 9 10 11 12 13 14 15 16 17 18 19 20 21 22 23 24 25 26 27 28 29 30 31 32 33 34 35 36 37 38 39 40 41 42 43 44 45 46 47 48 49 50
000
ASUS45 KBOU 010307
RWRCO

WEATHER ROUNDUP FOR COLORADO
NATIONAL WEATHER SERVICE DENVER/BOULDER CO
800 PM MST SAT JAN 31 2015

NOTE: "FAIR" INDICATES FEW OR NO CLOUDS BELOW 12000 FEET WITH NO
SIGNIFICANT WEATHER AND/OR OBSTRUCTIONS TO VISIBILITY.

COZ001>005-013-030-031-010400-
...NORTHWEST COLORADO...

CITY           SKY/WX    TMP DP  RH WIND       PRES   REMARKS
CRAIG          NOT AVBL
HAYDEN         PTCLDY    28  25  86 CALM      29.92S
MEEKER         CLOUDY    34  28  79 CALM      29.98S
MOUNT WERNER   NOT AVBL
STEAMBOAT SPGS CLOUDY    30  27  88 CALM      29.92S
WALDEN         CLOUDY    30  21  69 W9        29.86F WCI  22
$$

COZ006>008-011-010400-
...WEST CENTRAL VALLEYS...

CITY           SKY/WX    TMP DP  RH WIND       PRES   REMARKS
GRAND JUNCTION PTCLDY    37  35  92 N6        30.00R
MONTROSE       CLOUDY    38  35  89 NW5       30.02R
EAGLE          MOCLDY    34  30  86 CALM      29.98R
RIFLE          PTCLDY    36  29  75 CALM      29.98R
DELTA          MOCLDY    41  39  91 CALM      30.00R
NUCLA          PTCLDY    36  34  93 NW3       30.03R
$$

COZ017>023-064>068-010400-
...SOUTHWEST COLORADO...

CITY           SKY/WX    TMP DP  RH WIND       PRES   REMARKS
DURANGO        FOG       33  33 100 E5        29.92R VSB 3/4 WCI  29
CORTEZ         CLEAR     33  31  92 S3        29.96R
PAGOSA SPRINGS CLOUDY    33  33 100 CALM      29.93R FOG
TELLURIDE      LGT SNOW  28  28 100 W6        29.99S WCI  22
WOLF CREEK PAS PTCLDY    18  18 100 W7        29.97S WCI   8
$$

COZ009-010-012-014-032>034-037-058>063-010400-
...CENTRAL COLORADO...

CITY           SKY/WX    TMP DP  RH WIND       PRES   REMARKS
ASPEN          CLOUDY    31  27  85 N8        29.96R WCI  23
BUENA VISTA    PTCLDY    32  23  70 NW8       29.87R WCI  24
COPPER MTN     LGT SNOW  19  14  79 MISG      29.90S
BERTHOUD PASS  LGT SNOW  12   5  73 NW41G53   29.82S VSB 1   WCI -12
COTTONWOOD PAS PTCLDY    32  18  55 W18G28    29.89R WCI  20
GUNNISON       PTCLDY    30  25  80 W15       29.95R WCI  19
KREMMLING      MOCLDY    30  23  74 CALM      29.94S
LEADVILLE      FLURRIES  23  18  81 NW8       29.89R WCI  14
MONARCH PASS   CLOUDY    19  18  93 MISG      30.02R
SALIDA         MOCLDY    34  28  77 W7        29.95R WCI  28
SUNLIGHT       CLOUDY   N/A N/A N/A W3          N/A
WILKERSON PASS MOCLDY    19  18  93 NW14G28   29.90S WCI   6
$$

COZ069>075-010400-
...SAN LUIS VALLEY/SANGRE DE CRISTO MOUNTAINS...

CITY           SKY/WX    TMP DP  RH WIND       PRES   REMARKS
ALAMOSA        CLOUDY    32  30  92 CALM      29.87R
LA VETA PASS   CLOUDY    27  23  86 MISG      29.85R FOG
SAGUACHE       CLOUDY    30  28  93 E6        29.90R WCI  24
$$

COZ035-036-038>040-010400-
...NORTHERN COLORADO FRONT RANGE...

CITY           SKY/WX    TMP DP  RH WIND       PRES   REMARKS
DENVER INTL AP MOCLDY    32  29  88 CALM      29.85R
DMNS CITY PARK   N/A     31  28  86 E3        29.86R
AURORA         MOCLDY    31  31  99 CALM      29.86R
FRONT RANGE AP NOT AVBL
ERIE MUNI ARPT PTCLDY    27  25  92 CALM      29.87R
BOULDER MUN AP CLOUDY    32  28  86 N3        29.86R
CENTENNIAL     PTCLDY    31  27  85 CALM      29.84R
BROOMFIELD     PTCLDY    32  28  86 NE6       29.85R WCI  26
FORT COLLINS   PTCLDY    34  28  80 CALM      29.88R
LONGMONT       PTCLDY    28  24  84 SW3       29.89R
$$

COZ041-046-047-076>085-087-088-010400-
...PIKES PEAK/PALMER DIVIDE AND SOUTHERN FOOTHILLS...

CITY           SKY/WX    TMP DP  RH WIND       PRES   REMARKS
COLO. SPRINGS  MOCLDY    34  29  82 NW8       29.84R WCI  27
A. F. ACADEMY  PTCLDY    28  27  97 N7        29.82S WCI  21
ELLICOTT       PTCLDY   N/A N/A N/A CALM      29.82R
FALCON         PTCLDY    31  27  86 N13G18    29.83R WCI  21
FORT CARSON    MOCLDY    34  32  94 W1        29.82R
LIMON          CLOUDY    33  30  88 NW13      29.82R WCI  24
MONUMENT HILL  PTCLDY    27  25  93 W6        29.82R FOG     WCI  20
TRINIDAD       LGT SNOW  34  32  92 NE7       29.82S FOG     WCI  28
$$

COZ042>045-048>051-090-091-010400-
...NORTHEAST COLORADO...

CITY           SKY/WX    TMP DP  RH WIND       PRES   REMARKS
GREELEY ARPT   MOCLDY    34  27  75 CALM      29.86R
AKRON          CLOUDY    30  30 100 N14       29.83S WCI  19
BURLINGTON     LGT SNOW  33  30  88 N12       29.81R FOG     WCI  24
WRAY           CLOUDY   N/A N/A N/A N8        29.85R
STERLING       CLOUDY    32  32 100 NE10      29.87R WCI  24
HOLYOKE        NOT AVBL
FORT MORGAN    CLOUDY    33  32  96 N10       29.88R WCI  24
$$

COZ086-089-092>099-010400-
...SOUTHEAST COLORADO...

CITY           SKY/WX    TMP DP  RH WIND       PRES   REMARKS
PUEBLO         CLOUDY    37  36  96 SW3       29.83S
LA JUNTA       CLOUDY    38  35  89 W5        29.83R
LAMAR          LGT RAIN  39  37  92 NW7       29.81R
SPRINGFIELD      N/A     36  35  96 NW5       29.81R
$$


USA.gov is the U.S. government's official web portal to all federal, state and local government web resources and services.